DW7744 Weather Reports


time (UTC)temp
F
wind
direction
speed
knots
gust
knots
rain 1hr
in
rain 24hr
in
rain mn
in
humidity
%
barometer
mb
20260506180910 53 208 0.0 0.0 0.00 0.28 0.28 78 939.2
20260506180404 54 152 0.0 0.9 0.00 0.28 0.28 77 939.2
20260506175904 54 319 0.0 0.9 0.00 0.28 0.28 77 939.2
20260506175404 55 74 0.9 0.9 0.00 0.28 0.28 77 938.9
20260506174904 55 240 0.9 1.7 0.00 0.28 0.28 77 938.9
20260506174404 55 241 1.7 1.7 0.00 0.28 0.28 77 938.9
20260506173903 55 241 2.6 6.1 0.00 0.28 0.28 77 938.6
20260506172903 54 257 4.3 7.0 0.00 0.28 0.28 78 938.6
20260506172404 54 234 4.3 7.0 0.00 0.28 0.28 80 938.4
20260506171903 53 243 6.1 8.7 0.00 0.28 0.28 81 938.4
20260506171404 53 236 6.1 8.7 0.00 0.28 0.28 81 938.4
20260506165904 52 219 5.2 8.7 0.00 0.28 0.28 83 938.2
20260506164903 51 246 5.2 8.7 0.00 0.30 0.28 84 938.3
20260506164404 51 240 5.2 8.7 0.00 0.30 0.28 85 938.3
20260506163404 51 262 5.2 7.0 0.00 0.30 0.28 87 938.3
20260506162904 50 240 7.0 8.7 0.00 0.30 0.28 87 938.3
20260506161903 50 248 5.2 12.2 0.00 0.30 0.28 86 938.3
20260506161403 51 242 5.2 10.4 0.00 0.30 0.28 87 938.3
20260506160404 51 236 6.1 7.8 0.00 0.30 0.28 88 938.3
20260506155904 51 234 7.0 10.4 0.00 0.30 0.28 89 938.3
20260506155404 51 228 7.0 10.4 0.00 0.30 0.28 89 938.3
20260506154904 51 259 6.1 10.4 0.00 0.30 0.28 89 938.3
20260506154403 51 253 5.2 7.8 0.00 0.30 0.28 90 938.3
20260506153904 51 240 4.3 7.8 0.00 0.30 0.28 90 938.4
20260506153403 51 215 4.3 6.1 0.00 0.30 0.28 90 938.4
20260506152903 50 209 5.2 6.1 0.00 0.30 0.28 91 938.4
20260506152404 50 240 5.2 6.1 0.00 0.30 0.28 90 938.3
20260506151403 50 220 5.2 7.0 0.00 0.30 0.28 91 938.3
20260506150903 50 249 7.0 8.7 0.00 0.30 0.28 90 938.5
20260506150403 50 242 7.0 8.7 0.00 0.30 0.28 90 938.5
20260506145903 50 241 6.1 8.7 0.00 0.30 0.28 90 938.5
20260506145404 50 243 6.1 8.7 0.00 0.30 0.28 90 938.4
20260506144903 50 229 4.3 7.8 0.00 0.30 0.28 90 938.4
20260506144404 50 216 4.3 6.1 0.00 0.30 0.28 91 938.4
20260506143904 50 217 2.6 7.0 0.00 0.30 0.28 91 938.5
20260506143404 50 243 2.6 7.0 0.00 0.30 0.28 92 938.5
20260506142404 49 157 1.7 11.3 0.00 0.30 0.28 93 938.3
20260506141904 49 209 4.3 11.3 0.00 0.30 0.28 93 938.3
20260506141404 49 216 4.3 6.1 0.01 0.30 0.28 93 938.3
20260506140904 49 236 5.2 6.1 0.02 0.30 0.28 93 938.1
20260506140404 49 245 5.2 10.4 0.03 0.30 0.28 93 938.1
20260506135903 49 259 7.8 12.2 0.05 0.30 0.28 93 938.1
20260506135404 49 243 7.8 13.9 0.06 0.30 0.28 93 938.1
20260506134904 49 248 10.4 13.9 0.07 0.30 0.28 93 938.1
20260506134404 49 255 10.4 13.0 0.08 0.30 0.28 93 938.1
20260506133903 49 258 11.3 13.0 0.09 0.30 0.28 93 938.1
20260506133404 48 251 11.3 13.0 0.10 0.30 0.28 93 938.1
20260506132904 48 231 13.0 18.2 0.13 0.30 0.28 93 938.1
20260506132404 48 233 13.0 18.2 0.17 0.30 0.28 93 937.9
20260506131403 49 232 11.3 13.9 0.19 0.29 0.27 92 937.9
20260506130903 49 231 13.9 13.9 0.19 0.28 0.26 92 937.5
20260506125904 49 240 13.9 14.8 0.17 0.25 0.23 91 937.5
20260506125404 49 239 13.9 17.4 0.18 0.24 0.22 90 937.3
20260506124404 50 229 13.9 20.9 0.19 0.22 0.20 89 937.3
20260506123904 51 231 14.8 20.9 0.19 0.21 0.19 89 936.9
20260506123404 51 245 14.8 28.7 0.18 0.20 0.18 88 936.9
20260506122904 52 248 7.8 28.7 0.15 0.17 0.15 87 936.9
20260506122404 53 260 7.8 14.8 0.11 0.13 0.11 91 936.5
20260506121904 53 247 7.8 12.2 0.09 0.11 0.09 89 936.5
20260506120904 53 247 8.7 11.3 0.07 0.09 0.07 88 936.3
20260506115904 54 237 7.8 10.4 0.06 0.08 0.06 85 936.3
20260506115404 54 249 7.8 10.4 0.04 0.06 0.04 82 936.1
20260506114903 55 257 5.2 10.4 0.02 0.04 0.02 81 936.1
20260506114403 55 263 5.2 10.4 0.01 0.03 0.01 80 936.1
20260506113904 56 253 6.1 7.8 0.00 0.02 0.00 79 935.9
20260506113403 56 269 6.1 7.8 0.00 0.02 0.00 78 935.9
20260506112903 56 247 6.1 8.7 0.00 0.02 0.00 78 935.9
20260506112403 57 223 6.1 8.7 0.00 0.02 0.00 77 936.0
20260506110903 58 252 4.3 7.0 0.00 0.02 0.00 74 935.9
20260506110404 59 270 4.3 8.7 0.00 0.02 0.00 74 935.9
20260506104904 59 7 2.6 6.1 0.00 0.02 0.00 75 936.1
20260506104403 59 1 2.6 6.1 0.00 0.02 0.00 76 936.1
20260506103904 58 333 1.7 5.2 0.00 0.02 0.00 75 936.1
20260506103404 58 316 1.7 4.3 0.00 0.02 0.00 71 936.1
20260506102904 58 302 1.7 4.3 0.00 0.02 0.00 74 936.1
20260506102404 58 28 1.7 4.3 0.00 0.02 0.00 75 936.1
20260506101403 59 254 2.6 6.1 0.00 0.02 0.00 75 936.1
20260506100904 59 337 4.3 6.1 0.00 0.02 0.00 75 936.2
20260506100404 59 256 4.3 6.1 0.00 0.02 0.00 75 936.2
20260506095404 58 234 1.7 5.2 0.00 0.02 0.00 76 936.3
20260506094904 58 335 1.7 4.3 0.00 0.02 0.00 80 936.3
20260506093903 57 281 2.6 4.3 0.00 0.02 0.00 78 936.3
20260506093403 57 340 2.6 6.1 0.00 0.02 0.00 79 936.3
20260506092904 57 290 1.7 6.1 0.00 0.02 0.00 79 936.3
20260506091904 57 316 1.7 2.6 0.00 0.02 0.00 81 936.1
20260506091404 57 311 1.7 2.6 0.00 0.02 0.00 83 936.1
20260506090904 57 353 0.0 2.6 0.00 0.02 0.00 83 936.1
20260506090404 56 257 0.0 1.7 0.00 0.02 0.00 86 936.1
20260506085903 56 332 1.7 1.7 0.00 0.02 0.00 85 936.1
20260506084903 56 332 0.0 4.3 0.00 0.02 0.00 83 936.2
20260506084404 56 352 0.0 4.3 0.00 0.02 0.00 83 936.2
20260506083904 56 80 0.0 0.0 0.00 0.02 0.00 84 936.3
20260506083404 56 137 0.0 0.0 0.00 0.02 0.00 84 936.3
20260506082904 56 137 0.0 0.0 0.00 0.02 0.00 83 936.3
20260506082403 56 157 0.0 0.0 0.00 0.02 0.00 83 936.1
20260506081904 56 265 0.0 0.0 0.00 0.02 0.00 82 936.1
20260506081404 56 264 0.0 0.0 0.00 0.02 0.00 83 936.1
20260506080403 56 102 0.0 0.0 0.00 0.02 0.00 86 936.2
20260506072904 55 102 0.0 0.0 0.00 0.02 0.00 85 936.2
20260506072403 55 102 0.0 0.0 0.00 0.02 0.00 85 936.3
20260506071903 55 102 0.0 0.0 0.00 0.02 0.00 85 936.3
20260506071404 55 102 0.0 0.0 0.00 0.02 0.00 86 936.3
20260506062404 53 103 1.7 1.7 0.00 0.02 0.00 87 936.3
20260506061904 53 102 0.9 4.3 0.00 0.02 0.00 87 936.3
20260506061403 53 102 0.9 4.3 0.00 0.02 0.00 87 936.3
20260506060904 53 111 0.9 4.3 0.00 0.02 0.00 86 936.1
20260506060404 52 235 0.9 1.7 0.00 0.02 0.00 85 936.1
20260506051404 51 234 1.7 2.6 0.00 0.02 0.00 85 936.2
20260506050903 51 234 1.7 2.6 0.00 0.02 0.00 85 936.2
20260506050404 51 235 1.7 4.3 0.00 0.02 0.00 85 936.2
20260506044904 51 222 1.7 4.3 0.00 0.02 0.00 84 936.2
20260506044404 51 223 1.7 4.3 0.00 0.02 0.00 84 936.2
20260506043403 51 219 0.0 1.7 0.00 0.02 0.00 84 936.3
20260506042903 51 219 1.7 1.7 0.00 0.02 0.00 84 936.3
20260506041404 51 219 1.7 2.6 0.00 0.02 0.00 83 936.4
20260506040903 51 219 1.7 2.6 0.00 0.02 0.00 83 936.6
20260506040404 51 218 1.7 4.3 0.00 0.02 0.00 83 936.6
20260506035904 51 218 1.7 4.3 0.00 0.02 0.00 83 936.6
20260506035403 51 225 1.7 2.6 0.00 0.02 0.00 83 936.8
20260506034904 51 225 1.7 2.6 0.00 0.02 0.00 83 936.8
20260506033403 52 226 0.0 2.6 0.00 0.02 0.00 82 936.9
20260506032403 52 222 0.0 1.7 0.00 0.02 0.00 83 937.0
20260506031904 52 222 1.7 1.7 0.00 0.02 0.00 82 937.0
20260506031404 52 222 1.7 2.6 0.00 0.02 0.00 82 937.0
20260506030904 52 224 1.7 2.6 0.00 0.02 0.00 82 937.1
20260506030403 52 225 1.7 2.6 0.00 0.02 0.00 82 937.1
20260506025903 52 225 0.0 2.6 0.00 0.02 0.00 83 937.1
20260506025403 52 226 0.0 2.6 0.00 0.02 0.00 83 937.3
20260506024404 53 226 0.0 0.0 0.00 0.02 0.00 82 937.3
20260506023904 53 226 1.7 1.7 0.00 0.02 0.00 81 937.5
20260506022904 53 226 1.7 4.3 0.00 0.02 0.00 81 937.5
20260506022404 53 226 1.7 4.3 0.00 0.02 0.00 81 937.6
20260506021903 53 225 1.7 2.6 0.00 0.02 0.00 81 937.6
20260506021404 53 224 1.7 2.6 0.00 0.02 0.00 81 937.6
20260506020403 53 271 0.0 1.7 0.00 0.02 0.00 80 937.6
20260506015903 53 274 0.0 0.0 0.00 0.02 0.00 80 937.6
20260506015404 53 275 0.0 1.7 0.00 0.02 0.00 80 937.8
20260506014903 53 275 1.7 4.3 0.00 0.02 0.00 80 937.8
20260506013903 53 274 1.7 4.3 0.00 0.02 0.00 79 937.9
20260506013404 53 210 1.7 4.3 0.00 0.02 0.00 80 937.9
20260506012904 53 208 1.7 4.3 0.00 0.02 0.00 80 937.9
20260506012404 53 153 1.7 4.3 0.00 0.02 0.00 80 938.0
20260506011904 53 115 0.9 4.3 0.00 0.02 0.00 80 938.0
20260506011403 53 111 0.9 4.3 0.00 0.02 0.00 79 938.0
20260506010903 53 188 0.9 1.7 0.00 0.02 0.00 79 938.0
20260506010403 53 201 0.9 2.6 0.00 0.02 0.00 79 938.0
20260506005903 53 201 2.6 5.2 0.00 0.02 0.00 78 938.0
20260506005403 53 201 2.6 5.2 0.00 0.02 0.00 78 938.1
20260506004904 53 207 1.7 5.2 0.00 0.02 0.00 79 938.1
20260506004404 53 208 1.7 2.6 0.00 0.02 0.00 79 938.1
20260506003904 53 210 1.7 2.6 0.00 0.02 0.00 79 938.2
20260506003404 53 211 1.7 2.6 0.00 0.02 0.00 79 938.2
20260506002904 53 207 2.6 4.3 0.00 0.02 0.00 78 938.2
20260506002403 53 206 2.6 4.3 0.00 0.02 0.00 78 938.5
20260506001903 53 208 2.6 4.3 0.00 0.02 0.00 78 938.5
20260506001404 53 191 2.6 4.3 0.00 0.02 0.00 77 938.5
20260506000903 54 133 1.7 5.2 0.00 0.02 0.00 77 938.7
20260506000403 54 182 1.7 5.2 0.00 0.02 0.00 77 938.7
20260505235904 54 208 1.7 5.2 0.00 0.02 0.00 77 938.7
20260505234904 54 97 1.7 4.3 0.00 0.02 0.00 76 938.5
20260505234403 54 212 1.7 4.3 0.00 0.02 0.00 75 938.5
20260505233903 54 203 1.7 4.3 0.00 0.02 0.00 75 938.7
20260505233404 54 212 1.7 4.3 0.00 0.02 0.00 75 938.7
20260505232903 54 186 1.7 2.6 0.00 0.02 0.00 75 938.7
20260505232404 54 146 1.7 4.3 0.00 0.02 0.00 75 938.7
20260505231403 54 201 4.3 5.2 0.00 0.02 0.00 76 938.7
20260505230904 54 229 1.7 6.1 0.00 0.02 0.00 76 938.8
20260505230405 54 227 1.7 6.1 0.00 0.02 0.00 76 938.8
20260505225903 54 216 3.5 4.3 0.00 0.02 0.00 77 938.8
20260505225404 54 116 4.3 4.3 0.00 0.02 0.00 77 938.8
20260505224903 54 170 4.3 6.1 0.00 0.02 0.00 76 938.8
20260505224404 54 211 4.3 6.1 0.00 0.02 0.00 77 938.8
20260505223404 54 211 2.6 4.3 0.00 0.02 0.00 77 938.8
20260505222904 54 210 4.3 5.2 0.00 0.02 0.00 77 938.8
20260505221403 55 212 2.6 5.2 0.00 0.02 0.00 77 938.9
20260505220903 55 194 2.6 5.2 0.00 0.02 0.00 77 939.0
20260505220403 54 189 2.6 5.2 0.00 0.02 0.00 77 939.0
20260505215903 55 211 4.3 4.3 0.00 0.02 0.02 77 939.0
20260505215404 55 212 4.3 5.2 0.00 0.02 0.02 77 939.2
20260505214904 55 221 4.3 6.1 0.00 0.02 0.02 77 939.2
20260505214403 55 203 4.3 6.1 0.00 0.02 0.02 77 939.2
20260505212904 55 211 1.7 4.3 0.00 0.02 0.02 76 939.3
20260505212403 55 223 1.7 4.3 0.00 0.02 0.02 76 939.5
20260505211404 55 226 0.9 2.6 0.00 0.02 0.02 77 939.5
20260505210903 55 217 0.9 2.6 0.00 0.02 0.02 76 939.4
20260505205904 55 249 1.7 2.6 0.00 0.02 0.02 76 939.4
20260505204904 55 224 4.3 5.2 0.00 0.02 0.02 75 939.4
20260505203903 54 225 5.2 6.1 0.00 0.02 0.02 77 939.4
20260505203403 54 219 5.2 7.0 0.00 0.02 0.02 77 939.4
20260505202904 54 226 5.2 7.0 0.00 0.02 0.02 77 939.4
20260505202403 54 224 5.2 6.1 0.00 0.02 0.02 78 939.3
20260505201904 55 221 5.2 7.0 0.00 0.02 0.02 78 939.3
20260505201403 55 224 5.2 7.8 0.00 0.02 0.02 77 939.3
20260505200904 54 219 5.2 7.8 0.00 0.02 0.02 77 939.1
20260505200404 54 214 5.2 7.8 0.00 0.02 0.02 77 939.1
20260505195904 54 219 4.3 7.0 0.00 0.02 0.02 78 939.1
20260505195404 54 221 4.3 7.0 0.00 0.02 0.02 78 939.0
20260505194403 54 207 5.2 7.0 0.00 0.02 0.02 78 939.0
20260505193904 54 212 5.2 7.0 0.00 0.02 0.02 78 939.0
20260505193403 54 217 6.1 7.8 0.00 0.02 0.02 79 939.0
20260505192903 54 222 6.1 8.7 0.00 0.02 0.02 78 939.0
20260505192404 54 216 6.1 8.7 0.00 0.02 0.02 79 938.8
20260505191904 54 220 6.1 10.4 0.00 0.02 0.02 79 938.8
20260505190904 54 215 5.2 10.4 0.00 0.02 0.02 80 938.6
20260505190403 54 220 5.2 6.1 0.00 0.02 0.02 81 938.6
20260505185903 54 215 5.2 6.1 0.00 0.02 0.02 82 938.6
20260505185404 54 220 5.2 6.1 0.00 0.02 0.02 82 938.5
20260505184903 54 222 5.2 7.0 0.00 0.02 0.02 83 938.5
20260505184404 54 216 5.2 7.8 0.00 0.02 0.02 83 938.5
20260505183904 55 224 4.3 7.8 0.00 0.02 0.02 83 938.8
20260505183403 54 205 4.3 7.8 0.00 0.02 0.02 83 938.8
20260505182904 54 221 5.2 6.1 0.00 0.02 0.02 83 938.8
20260505182403 54 225 6.1 8.7 0.00 0.02 0.02 83 938.6
20260505181903 54 229 5.2 10.4 0.00 0.02 0.02 83 938.6
20260505181404 54 223 5.2 10.4 0.00 0.02 0.02 83 938.6